Penn Yan, NY

3:53 AM EDT on September 23, 2017 (GMT -0400)
Penn Yan

Weather History for KPEO - April, 2013

Change the Weather History Date:

Wednesday, April 17, 2013

  Actual Average (KITH) Record (KITH)
Temperature  
Mean Temperature 47 °F -  
Max Temperature 55 °F 56 °F 87 °F (2002)
Min Temperature 39 °F 35 °F 22 °F (1946)
Degree Days  
Heating Degree Days 18    
Moisture  
Dew Point 32 °F    
Average Humidity 57    
Maximum Humidity 76    
Minimum Humidity 41    
Precipitation  
Precipitation 0.00 in - - ()
Sea Level Pressure  
Sea Level Pressure 30.30 in    
Wind  
Wind Speed 5 mph (NNW)    
Max Wind Speed 10 mph    
Max Gust Speed -    
Visibility 10 miles    
Events      
Averages and records for this station are not official NWS values.
T = Trace of Precipitation, MM = Missing Value Source: NWS Daily Summary

Daily Weather History Graph

Daily Weather History Graph

Search for Another Location

Airport or City:

Trip Planner

Search our weather history database for the weather conditions in past years. The results will help you decide how hot, cold, wet, or windy it might be!

Date:

Astronomy

Apr. 17, 2013 Rise Set
Actual Time 6:23 AM EDT 7:52 PM EDT
Civil Twilight 5:53 AM EDT 8:22 PM EDT
Nautical Twilight 5:18 AM EDT 8:58 PM EDT
Astronomical Twilight 4:40 AM EDT 9:36 PM EDT
Moon 11:32 AM EDT (4/17) 1:32 AM EDT (4/17)
Length of Visible Light 14h 28m
Length of Day
13h 29m
Waxing Crescent, 42% of the Moon is Illuminated
Apr 17
Waxing Crescent
Apr 18
First Quarter
Apr 25
Full
May 2
Last Quarter
May 9
New

Hourly Weather History & Observations

Time (EDT) Temp. Windchill Dew Point Humidity Pressure Visibility Wind Dir Wind Speed Gust Speed Precip Events Conditions
12:15 AM 46.4 °F 42.9 °F 33.8 °F 62% 30.22 in 10.0 mi North 6.9 mph - N/A   Overcast
12:53 AM 45.0 °F 40.6 °F 30.9 °F 58% 30.25 in 10.0 mi NNW 8.1 mph - N/A   Overcast
1:53 AM 44.1 °F 40.1 °F 30.0 °F 58% 30.27 in 10.0 mi NW 6.9 mph - N/A   Overcast
2:53 AM 43.0 °F - 30.9 °F 62% 30.26 in 10.0 mi Calm Calm - N/A   Overcast
3:53 AM 42.1 °F 40.2 °F 30.0 °F 62% 30.26 in 10.0 mi NNW 3.5 mph - N/A   Clear
4:53 AM 39.0 °F - 30.0 °F 70% 30.27 in 10.0 mi Calm Calm - N/A   Clear
5:53 AM 39.0 °F - 28.9 °F 67% 30.29 in 10.0 mi Calm Calm - N/A   Clear
6:53 AM 39.0 °F 35.7 °F 28.9 °F 67% 30.32 in 10.0 mi West 4.6 mph - N/A   Clear
7:53 AM 42.1 °F - 30.0 °F 62% 30.34 in 10.0 mi Calm Calm - N/A   Clear
8:53 AM 44.1 °F 40.8 °F 30.0 °F 58% 30.35 in 10.0 mi NW 5.8 mph - N/A   Clear
10:53 AM 48.9 °F - 32.0 °F 52% 30.35 in 10.0 mi NNE 5.8 mph - N/A   Clear
11:53 AM 50.0 °F - 32.0 °F 50% 30.34 in 10.0 mi Variable 4.6 mph - N/A   Clear
12:53 PM 52.0 °F - 35.1 °F 53% 30.34 in 10.0 mi Variable 6.9 mph - N/A   Clear
1:53 PM 52.0 °F - 34.0 °F 50% 30.34 in 10.0 mi NNW 6.9 mph - N/A   Clear
2:53 PM 54.0 °F - 34.0 °F 47% 30.33 in 10.0 mi North 8.1 mph - N/A   Clear
3:53 PM 55.0 °F - 33.1 °F 43% 30.32 in 10.0 mi NNE 10.4 mph - N/A   Clear
4:53 PM 55.0 °F - 33.1 °F 43% 30.32 in 10.0 mi Variable 5.8 mph - N/A   Clear
5:53 PM 54.0 °F - 30.9 °F 41% 30.32 in 10.0 mi Variable 4.6 mph - N/A   Clear
6:53 PM 52.0 °F - 30.0 °F 43% 30.32 in 10.0 mi NNE 3.5 mph - N/A   Clear
7:53 PM 46.9 °F - 32.0 °F 56% 30.32 in 10.0 mi Calm Calm - N/A   Clear
8:53 PM 45.0 °F - 33.1 °F 63% 30.30 in 10.0 mi Calm Calm - N/A   Clear
9:53 PM 43.0 °F - 30.9 °F 62% 30.30 in 10.0 mi Calm Calm - N/A   Clear
10:53 PM 39.0 °F - 32.0 °F 76% 30.28 in 10.0 mi Calm Calm - N/A   Clear
11:53 PM 41.0 °F - 33.1 °F 73% 30.26 in 10.0 mi Calm Calm - N/A   Clear